Theta_e
318 318 319 319 320 320 320 320 321 322 323 324 326 327 329 330 331 332 332 333 333 332 331 331 331 331 331 330 329 329 332 334 334 334 334 334 334 334 334 334 334 334 335 335 335 333 333 333 332 332 331 330 333 334 331 331 333 333 332 331 332 331 331 332 332 332 332 330 330 329 328 328 327 326 325 322 322 319 316 317 319 317 312 306 302
317 317 318 318 318 319 319 319 320 320 321 322 323 325 327 328 330 331 332 332 333 333 332 332 331 331 331 331 331 330 330 332 334 334 334 334 334 334 334 334 334 334 334 335 334 333 333 332 332 332 331 331 333 334 333 332 333 333 332 332 331 330 331 331 330 331 331 331 330 328 328 327 327 326 324 323 322 317 315 318 319 316 313 311 308
316 317 317 317 317 318 318 318 318 319 319 320 321 322 323 325 327 329 331 332 333 333 332 332 331 331 331 331 332 331 329 330 333 334 333 334 334 333 333 333 333 334 334 334 333 333 333 332 332 331 330 332 334 334 333 333 332 331 331 331 330 330 331 331 328 329 331 331 330 329 328 327 326 326 324 324 322 317 313 317 319 316 312 312 313
316 316 316 316 316 317 317 317 317 318 318 319 320 320 321 323 325 327 329 330 331 332 332 332 331 331 331 331 331 331 330 330 333 334 333 334 333 333 333 333 333 333 334 333 332 332 333 333 332 331 330 331 332 333 334 333 330 330 330 329 329 330 331 331 330 330 330 330 329 328 329 328 327 326 325 324 323 317 312 314 317 315 311 311 314
315 316 316 316 316 316 316 316 316 317 317 318 319 319 321 322 324 325 328 329 330 330 331 332 332 331 331 331 330 331 330 330 332 333 333 333 333 333 333 332 333 333 333 333 332 332 333 333 333 332 331 332 330 331 333 332 329 329 329 328 329 330 331 330 330 330 329 329 328 327 328 328 327 326 325 324 323 319 313 313 315 314 312 311 312
315 315 315 315 315 315 315 315 315 316 316 317 318 319 320 321 322 324 326 328 329 330 330 330 331 331 331 331 330 330 330 330 331 332 332 333 333 333 333 332 333 333 332 332 332 333 332 332 333 332 332 333 332 332 333 332 330 330 329 329 330 331 331 330 329 329 328 328 328 327 327 327 327 326 325 324 323 320 315 314 314 313 312 312 312
314 314 314 314 315 315 315 315 315 315 315 316 317 318 319 319 320 321 323 324 326 328 329 329 330 330 331 331 331 331 331 330 330 331 333 333 333 333 333 333 332 332 332 332 333 333 332 332 332 331 331 332 333 333 333 332 332 331 330 330 329 329 331 331 330 329 328 328 328 327 326 327 327 327 325 324 322 321 317 315 315 314 313 312 312
314 314 314 314 314 315 315 314 315 315 315 315 315 316 317 317 318 319 320 320 322 324 326 327 328 329 330 330 330 330 330 330 330 331 332 333 332 332 333 332 331 331 332 333 333 332 331 332 331 330 331 333 332 332 333 332 331 330 329 328 328 329 331 331 330 330 329 328 328 327 325 325 326 326 324 322 321 319 317 316 317 316 314 313 313
313 313 313 314 314 314 314 314 314 315 315 315 315 315 315 315 316 316 317 318 319 320 321 323 325 327 328 329 330 330 329 329 330 331 331 332 332 331 331 331 331 331 331 332 331 331 331 331 331 331 332 332 332 331 332 331 329 329 329 329 329 329 328 328 329 331 330 329 328 327 325 324 325 325 323 320 320 318 316 316 317 316 316 315 314
312 312 313 313 313 313 314 314 314 314 314 314 314 314 314 314 314 314 315 315 315 316 317 319 321 322 324 326 328 329 329 328 330 330 330 331 331 331 330 330 330 330 330 330 329 330 331 331 330 331 332 331 331 331 331 330 329 329 329 329 329 328 327 327 328 329 330 330 329 327 326 324 323 324 322 319 318 318 317 317 317 317 316 316 316
311 312 312 312 312 312 313 313 313 313 314 313 313 313 313 313 312 312 312 312 312 313 314 315 316 317 319 320 323 325 327 327 328 329 329 329 329 329 329 330 330 330 330 330 328 329 331 330 329 331 332 331 331 331 330 329 329 329 329 329 328 328 328 327 326 327 328 328 327 327 327 326 324 322 320 318 318 318 318 318 318 318 318 318 318
310 311 311 311 311 311 311 312 312 312 312 312 312 312 312 312 311 311 310 310 310 311 312 312 312 314 315 316 318 320 322 324 325 326 328 329 328 328 329 328 328 329 330 329 328 329 331 331 330 330 331 331 330 330 329 329 329 329 329 329 328 329 329 328 326 326 327 326 326 326 326 325 325 323 321 320 319 318 319 319 319 318 318 318 317
309 310 310 310 310 310 310 311 311 311 311 311 311 311 311 311 310 309 309 309 309 309 310 310 310 311 311 312 313 316 317 319 322 324 326 327 327 328 328 327 327 329 329 329 330 330 330 331 331 331 330 330 330 329 329 329 329 328 328 328 329 329 329 328 327 326 327 327 326 326 326 325 324 324 323 321 321 321 321 321 320 319 318 318 317
308 309 309 309 309 309 309 310 310 310 310 310 310 310 310 310 309 308 308 307 307 307 308 308 308 308 308 308 309 311 312 313 317 320 323 325 326 327 327 328 328 328 329 330 330 329 328 330 331 330 330 330 329 328 328 329 329 328 329 329 329 328 328 327 327 325 326 327 327 326 326 325 324 323 322 322 323 323 322 321 320 319 319 320 320
308 308 308 308 308 308 308 308 309 309 309 309 309 309 309 308 308 307 307 307 306 306 306 306 306 305 305 305 306 307 308 309 311 315 319 321 324 325 326 327 328 327 328 330 330 328 329 331 330 330 329 329 328 328 328 328 328 328 328 327 326 326 326 325 326 326 325 325 325 326 325 324 324 322 320 321 322 321 320 318 317 316 317 319 321
307 307 307 308 308 308 307 307 308 308 308 308 308 308 308 307 307 307 307 307 306 305 305 305 304 303 303 303 303 304 305 306 307 311 314 317 320 322 324 325 327 327 328 330 329 329 329 329 328 328 329 328 327 327 327 327 328 328 326 324 323 324 324 324 324 325 325 324 324 325 325 324 324 321 319 319 318 317 316 315 316 316 316 318 319
306 307 307 307 307 307 307 307 307 307 307 307 307 307 307 306 306 306 306 306 306 305 305 304 303 302 302 301 301 301 302 304 306 309 311 314 316 319 322 324 326 328 329 329 328 328 328 328 327 327 328 328 327 326 326 326 327 327 325 322 320 320 320 321 323 323 324 324 324 324 324 324 324 322 319 317 315 313 312 315 317 318 319 320 321
305 306 306 306 306 306 306 306 306 306 306 307 306 306 306 306 306 306 305 305 305 305 305 305 303 302 301 301 301 300 301 302 306 309 311 313 315 318 321 323 323 324 325 324 324 325 326 327 328 327 327 327 326 325 325 326 326 325 323 320 318 317 316 318 320 320 321 322 322 322 322 322 322 320 318 316 315 313 314 317 320 320 320 321 322
305 305 306 305 305 306 306 306 306 306 306 306 306 306 306 305 305 305 305 304 304 304 305 304 303 302 301 300 300 300 300 301 304 309 311 313 315 318 320 320 319 318 318 318 319 320 321 324 327 328 327 326 326 325 325 325 325 323 321 319 318 317 315 315 316 317 317 318 318 317 316 316 316 316 316 316 317 317 318 319 319 319 319 320 321
304 304 305 305 305 305 305 305 305 305 306 306 306 306 306 305 305 304 304 304 304 303 303 303 303 301 301 300 299 299 299 300 303 307 310 313 314 316 317 316 314 313 314 313 313 314 316 320 323 325 325 325 324 324 323 323 323 322 320 319 318 316 314 314 315 315 315 314 313 312 311 312 312 313 314 315 316 317 318 317 316 316 316 316 318
304 304 304 304 304 304 304 304 304 305 305 305 305 305 305 305 305 304 304 303 303 302 302 302 302 301 300 300 299 298 298 299 301 303 307 310 311 312 312 312 311 311 311 309 309 310 312 314 316 319 322 322 321 321 322 322 322 321 320 319 316 314 313 313 313 312 311 311 310 309 308 309 309 309 310 310 311 311 312 313 313 313 312 312 313
303 303 303 303 303 303 303 303 303 303 304 304 304 304 304 304 304 304 303 303 302 302 302 302 302 301 300 299 299 299 298 298 299 301 303 306 307 308 309 309 310 311 310 307 305 304 306 308 310 313 316 318 318 319 320 320 320 319 318 317 314 312 311 311 310 310 309 308 308 307 307 307 306 306 306 306 305 305 305 306 307 309 310 310 310
303 303 303 303 303 303 302 302 302 302 303 303 303 303 303 303 303 303 303 303 302 302 302 302 301 301 301 300 299 299 298 298 298 300 302 304 306 308 309 309 310 311 309 305 302 302 303 305 307 309 312 314 315 316 317 317 316 315 314 313 311 310 310 309 309 308 307 306 306 306 306 306 305 305 306 306 306 305 304 303 303 304 306 308 308
303 303 303 303 302 302 302 302 302 301 302 302 302 302 301 301 301 301 301 301 301 301 301 301 301 301 301 300 299 298 298 298 298 298 299 300 301 304 305 306 308 308 306 303 302 303 303 304 306 307 309 310 312 312 312 312 311 310 310 309 308 308 308 308 307 306 305 305 305 304 304 304 304 305 305 305 306 306 305 305 303 303 303 305 305
303 303 302 302 302 302 302 302 301 301 301 301 301 301 301 300 300 300 300 300 300 300 300 300 300 300 300 300 299 297 297 297 297 298 298 298 298 299 300 301 303 304 303 301 301 301 303 304 305 306 307 308 309 309 308 307 307 307 307 307 308 308 308 307 306 306 305 304 304 304 304 304 303 303 303 303 304 304 304 304 304 303 302 302 302
303 302 302 302 302 302 302 302 302 301 301 300 300 300 300 300 299 299 299 299 299 299 299 299 299 299 299 299 298 297 296 296 297 297 297 298 298 298 298 299 300 300 300 300 300 301 302 303 304 304 305 305 305 305 304 305 305 306 306 307 307 308 307 307 306 305 305 304 304 303 303 303 303 303 304 305 305 305 304 304 304 304 303 303 303
302 302 302 302 302 302 302 302 302 301 301 301 300 300 300 299 299 298 298 298 298 298 298 298 298 298 298 298 298 297 296 296 296 296 297 297 297 298 298 298 298 299 299 299 299 300 300 301 301 302 302 302 302 302 303 303 303 304 304 305 305 305 305 304 304 304 304 303 303 303 303 303 303 303 304 305 305 305 305 305 305 305 305 304 304
301 301 302 302 302 302 302 302 302 302 302 301 300 299 299 299 299 298 297 297 297 298 297 297 297 297 296 297 297 296 296 296 296 296 296 297 297 297 297 297 297 298 298 298 298 299 299 300 300 300 301 301 300 300 300 300 300 301 301 301 302 302 302 302 302 302 302 302 303 303 303 303 303 303 303 304 304 305 305 305 305 305 305 305 304
301 301 301 301 301 302 302 302 302 302 302 301 299 298 298 299 299 298 297 297 297 297 297 297 297 297 296 296 296 296 295 296 296 295 296 296 296 297 297 297 297 297 297 298 298 298 298 298 298 298 298 298 298 297 298 298 298 298 299 299 299 300 300 300 300 301 301 302 302 302 302 302 302 302 303 303 303 303 304 304 304 304 304 304 304
300 300 300 300 300 301 301 302 302 301 302 301 300 299 298 298 298 298 297 297 297 298 298 297 297 297 297 296 296 296 296 296 296 296 296 296 296 296 296 297 297 297 297 298 298 297 296 295 295 295 296 296 296 296 296 296 296 296 297 297 298 298 298 298 298 299 299 300 300 301 301 301 301 301 301 301 302 302 302 302 302 303 303 303 302
299 300 300 299 299 300 300 301 301 301 301 301 301 301 299 298 298 297 297 297 297 297 298 298 298 297 297 297 297 296 297 297 297 297 296 296 296 296 295 296 296 296 297 298 297 296 295 294 294 294 294 294 294 295 295 295 295 295 295 295 296 296 296 296 297 297 298 298 298 299 299 299 300 300 300 300 301 301 301 301 302 302 302 302 302
299 299 299 299 299 299 299 299 300 300 301 301 301 301 301 300 299 298 298 298 297 297 297 297 297 297 297 297 297 297 297 297 297 297 297 296 296 295 295 295 296 296 296 297 296 294 293 293 293 293 293 293 293 293 294 294 294 294 294 295 295 295 295 295 296 296 296 296 297 297 297 297 298 298 298 299 299 300 300 300 299 299 300 300 300
299 299 299 299 299 298 298 299 299 299 300 300 300 300 300 300 300 300 299 299 298 297 296 295 295 295 295 295 296 296 297 297 297 297 296 296 296 295 295 295 295 295 296 295 294 293 293 293 293 293 293 293 293 293 293 293 293 294 294 294 294 294 294 294 295 295 295 295 295 296 296 296 296 297 297 297 298 298 299 299 299 298 298 299 299
299 299 299 299 299 299 298 299 299 299 299 299 299 300 300 300 300 300 300 299 299 299 298 296 295 295 295 294 295 295 296 296 296 296 296 296 296 296 295 295 295 295 295 294 293 292 292 292 292 292 292 292 293 293 293 293 293 293 293 293 293 293 293 294 294 294 294 295 295 295 296 296 296 296 296 297 297 298 298 298 298 299 298 298 299
299 299 299 299 299 299 299 298 298 298 298 298 298 298 299 299 299 300 300 299 299 299 299 298 297 297 296 295 295 295 295 295 296 296 296 297 296 296 296 296 296 295 295 294 293 293 292 292 293 293 292 292 293 293 293 293 292 293 293 293 293 293 293 293 293 293 294 294 294 294 295 295 295 296 296 296 297 297 297 298 298 298 298 298 298
299 299 299 299 299 299 299 298 298 298 298 298 298 298 298 299 299 299 299 299 299 299 299 299 299 298 297 296 295 295 295 295 295 295 296 296 297 297 297 297 296 295 295 294 294 293 293 293 293 293 292 292 293 293 293 293 293 293 293 293 293 292 293 293 293 293 293 293 294 294 294 295 295 295 295 296 296 296 296 296 296 296 297 297 297
299 299 298 299 299 299 299 298 298 298 298 298 298 298 298 298 298 298 299 299 299 298 298 298 299 299 298 297 295 295 296 296 296 296 296 296 297 297 297 297 296 295 295 294 294 294 294 293 293 293 293 293 293 292 292 292 292 292 292 292 292 292 292 292 293 293 293 293 293 294 294 294 295 295 295 295 295 295 294 294 294 295 295 295 296
299 299 298 298 299 299 299 298 298 298 298 298 298 298 297 297 297 298 298 298 298 298 298 298 298 298 297 295 295 296 296 296 296 296 296 297 297 297 297 296 296 295 294 294 294 294 294 294 293 293 293 293 293 293 292 292 292 292 291 291 292 292 292 292 293 293 293 293 293 294 294 294 294 294 295 295 295 295 295 295 295 295 295 295 295
299 299 298 298 298 299 298 298 298 298 298 298 298 297 297 297 297 297 297 298 298 298 298 298 298 297 295 295 295 296 296 296 296 296 296 296 297 297 297 296 296 295 295 294 294 294 294 293 293 293 293 293 293 292 292 292 292 291 291 292 292 292 293 293 293 293 293 293 293 294 294 294 294 294 294 294 294 294 294 294 294 295 295 294 295
299 299 299 298 298 298 298 298 298 298 298 298 297 297 297 297 297 297 297 297 297 298 298 298 297 296 295 294 294 295 296 296 296 296 296 296 296 296 296 296 296 295 295 294 294 294 293 293 293 293 293 293 293 292 292 292 292 292 292 292 292 292 292 292 293 293 293 293 293 293 293 293 294 294 294 294 293 293 293 293 293 293 294 294 294
298 299 299 298 298 298 298 298 298 298 298 298 297 297 297 297 297 297 297 297 297 297 297 298 297 297 295 294 294 295 296 296 296 296 295 296 296 296 296 296 295 295 295 294 294 294 294 293 293 293 292 292 292 292 292 292 292 292 292 292 292 292 292 292 292 292 292 293 293 293 293 293 293 293 293 293 293 293 293 293 293 293 293 293 293
299 298 298 298 298 298 298 298 298 298 298 298 298 297 297 297 297 297 297 297 297 297 297 297 297 297 296 295 295 295 295 296 296 296 295 295 295 295 295 295 295 295 295 294 294 294 294 294 293 293 292 292 292 292 292 292 292 292 292 292 292 292 292 292 292 292 292 292 292 292 292 292 292 292 292 293 293 293 293 293 293 293 293 293 293
298 298 297 297 298 298 298 298 298 298 298 298 298 298 297 297 297 297 297 297 297 297 297 297 297 297 297 296 295 295 295 295 296 295 295 295 295 295 295 295 295 295 295 294 294 294 294 293 293 293 292 292 292 292 293 293 292 292 292 292 292 292 292 292 292 292 292 291 291 292 292 292 292 292 292 292 292 292 292 292 292 293 293 293 293
297 297 297 297 298 298 298 298 298 298 298 297 297 297 297 297 297 297 297 297 297 297 297 297 297 297 297 296 296 296 295 295 295 295 295 295 295 295 294 294 294 294 294 294 294 294 293 293 293 293 293 293 293 292 292 292 292 292 292 292 292 292 292 292 292 292 292 291 291 292 292 292 292 292 292 292 292 292 292 291 291 292 293 293 292
297 297 297 298 298 298 298 298 297 297 297 297 297 297 297 297 297 297 297 297 297 297 297 297 297 297 297 297 296 296 295 295 295 295 295 295 295 295 294 294 294 294 294 294 294 293 293 293 293 293 293 293 292 292 292 292 292 292 292 292 292 292 292 291 291 291 291 292 292 292 292 292 292 292 292 292 292 292 292 291 291 292 292 292 291
297 297 297 298 298 298 298 297 297 297 297 297 297 297 297 297 297 296 296 296 296 297 297 297 297 297 297 297 296 296 295 295 294 294 295 295 295 295 294 294 294 294 294 294 293 293 293 293 293 292 292 292 292 292 292 292 292 292 292 292 292 292 291 291 291 290 291 291 291 292 292 292 292 292 292 292 292 292 292 292 291 291 291 292 292
297 297 296 297 297 297 298 297 297 297 297 297 297 296 296 296 296 296 296 296 296 297 297 297 297 297 297 297 297 296 296 295 295 294 294 294 295 295 294 294 294 294 294 294 293 293 293 293 292 292 292 292 292 292 292 292 292 292 292 292 291 291 291 290 290 291 291 291 291 291 292 292 292 292 291 292 292 292 292 292 291 291 291 291 291
297 297 296 296 296 296 297 297 297 296 297 297 296 296 296 296 296 296 296 296 296 297 297 297 297 297 297 297 296 296 296 295 295 295 294 294 294 294 294 294 294 294 293 293 293 293 293 293 292 292 292 291 291 291 291 291 291 291 291 291 291 290 290 290 290 291 291 290 291 291 291 291 291 292 291 291 291 291 292 292 292 291 291 292 291
297 297 297 296 296 296 296 296 296 296 296 296 296 296 296 296 296 296 296 296 296 297 297 297 297 297 297 297 296 296 296 296 295 295 295 294 294 294 294 294 293 293 293 293 293 293 292 292 291 291 291 290 290 290 290 290 290 290 290 290 290 289 289 289 290 290 290 290 290 291 291 291 291 291 291 291 291 291 291 291 291 291 292 292 291
297 297 297 296 296 296 296 296 296 296 296 296 295 296 296 296 296 296 296 296 296 297 297 297 297 297 297 297 296 296 296 296 295 295 295 294 294 294 294 293 293 293 293 293 292 292 291 291 290 290 290 290 290 290 290 290 290 290 289 288 288 289 289 289 289 289 290 290 290 291 291 291 291 291 291 291 291 291 290 290 291 291 291 291 291
297 297 297 296 296 296 296 296 296 296 296 296 296 296 296 296 296 296 296 296 296 296 296 297 297 297 296 296 296 296 296 296 296 295 295 295 294 294 294 294 293 293 293 292 292 291 291 291 291 290 290 290 290 290 290 290 289 289 288 287 288 289 289 289 289 289 290 289 290 291 291 291 290 291 291 291 291 290 290 289 289 289 290 291 291
Wind_Speed
14 14 14 15 16 16 16 16 16 16 17 18 18 18 19 19 18 16 15 13 13 13 14 14 15 16 18 19 21 22 19 17 18 19 19 20 20 21 22 22 22 21 20 19 21 24 24 23 24 25 26 25 21 21 24 23 19 18 19 17 16 17 16 10 6 6 6 10 16 18 19 20 19 19 18 19 20 18 16 16 17 17 16 17 19
14 15 15 16 17 17 17 17 16 17 17 17 18 18 18 19 19 17 16 14 12 12 12 12 13 16 20 20 20 22 22 20 18 19 21 21 21 21 21 23 24 23 21 22 24 26 24 25 25 25 25 25 21 20 22 21 18 18 18 17 18 19 17 12 8 6 7 10 15 19 22 22 19 19 20 19 19 19 18 17 17 17 16 16 18
15 15 15 16 17 17 17 18 17 18 18 17 17 18 19 19 20 20 18 16 14 13 13 13 14 17 20 20 19 20 24 24 20 19 21 21 22 22 22 24 24 24 23 23 24 24 22 25 26 23 23 24 21 19 19 21 22 22 20 18 20 19 16 13 13 12 10 10 14 17 20 20 18 19 21 19 16 17 19 18 16 16 17 16 16
15 16 16 17 17 17 18 18 18 18 18 18 18 19 19 19 19 20 20 18 15 15 15 15 16 18 20 21 20 22 26 26 21 19 20 20 22 22 22 24 24 24 23 22 24 23 23 25 25 23 24 25 24 20 18 21 25 27 23 21 22 19 17 16 16 16 14 12 15 17 16 18 19 18 20 19 17 17 19 18 16 16 17 16 16
17 17 17 18 18 18 19 18 18 18 18 18 19 19 19 19 18 19 20 20 17 16 16 16 18 20 21 22 24 27 29 26 20 18 19 20 21 22 22 23 23 23 22 23 25 24 23 22 22 22 24 24 24 22 20 24 27 28 27 25 24 19 17 18 19 19 19 16 17 18 17 17 19 18 19 20 18 18 18 18 17 16 16 16 15
17 17 18 18 18 19 20 19 18 19 18 18 19 19 19 19 19 19 20 20 19 18 17 17 18 19 20 22 27 29 28 24 20 19 19 21 22 22 22 23 21 22 23 23 24 24 24 23 22 22 23 23 24 22 20 23 25 25 24 23 22 18 15 18 18 19 20 17 14 16 17 18 18 18 19 20 19 18 18 18 17 16 17 16 14
17 18 18 19 19 20 20 19 19 19 19 18 19 19 19 19 19 20 21 21 20 20 19 18 18 19 20 22 25 27 25 21 19 20 21 22 21 20 22 25 23 22 23 22 24 26 26 26 24 25 26 25 25 23 19 21 23 22 20 17 18 17 16 17 14 15 20 20 15 15 16 16 16 17 19 20 19 18 17 17 17 16 16 16 15
17 17 18 18 19 19 19 19 19 19 19 19 19 19 19 20 20 20 21 22 21 20 20 20 20 20 21 22 23 25 24 18 17 21 22 22 22 20 22 24 22 22 23 24 27 30 28 27 26 26 25 24 25 23 20 23 25 23 18 14 16 15 12 15 14 14 18 19 16 16 16 15 16 17 19 20 18 18 18 17 16 16 16 16 16
16 17 17 18 19 19 19 19 19 19 19 20 20 19 19 20 21 20 20 21 21 21 21 21 21 21 21 23 22 23 24 19 17 21 22 21 20 19 22 24 22 23 24 23 25 28 27 26 25 24 21 22 25 24 22 25 26 23 19 15 14 12 6 9 12 11 14 16 16 17 15 15 18 18 18 19 18 17 17 17 15 15 15 15 15
17 17 18 18 19 19 19 19 19 19 19 20 20 20 21 21 21 21 21 21 21 22 22 21 21 21 22 22 21 22 23 22 21 22 23 23 21 18 19 21 22 26 27 24 23 25 26 24 23 21 19 21 23 23 23 23 22 22 20 16 14 12 8 10 12 10 11 12 13 14 12 14 18 19 17 17 18 17 16 16 16 15 16 15 14
18 18 18 19 19 19 19 20 20 19 20 20 20 21 21 22 22 21 21 21 22 22 22 22 21 21 21 22 22 22 21 18 19 22 25 26 23 20 18 18 20 25 27 26 26 26 25 23 21 21 21 21 21 22 22 21 20 21 21 17 15 13 13 12 11 13 12 7 8 11 11 11 15 17 17 17 17 17 16 16 15 15 16 15 12
18 18 19 19 20 20 20 20 20 20 20 20 20 20 21 22 22 21 21 21 21 21 21 21 21 21 21 21 22 22 20 17 17 20 23 25 24 22 23 21 20 23 26 28 27 26 24 20 18 20 22 22 21 21 21 21 21 22 20 16 13 12 13 13 12 16 14 8 11 13 9 9 13 15 15 17 18 18 16 16 16 15 15 14 12
18 18 19 20 20 20 20 20 20 20 20 20 20 20 20 21 22 21 21 22 21 20 20 21 21 21 21 22 21 20 20 21 21 19 20 22 23 23 25 25 22 24 27 28 27 26 23 19 16 16 18 21 21 20 21 21 21 22 20 15 11 9 10 10 12 15 14 10 13 15 12 12 14 13 12 16 18 17 15 14 13 12 11 10 11
18 18 19 20 20 20 21 20 20 20 20 20 20 20 20 21 21 21 21 22 22 21 21 21 21 21 21 22 21 20 19 22 23 22 22 22 22 22 25 27 25 25 26 26 26 26 24 22 19 15 16 20 21 19 19 20 20 18 16 12 9 8 8 8 9 12 12 10 10 13 14 13 13 13 14 14 16 15 13 13 14 12 8 4 3
18 18 19 20 20 20 21 20 20 20 20 20 20 20 20 20 20 20 20 20 21 21 21 21 21 22 22 22 22 20 20 23 25 24 24 23 21 21 24 27 26 25 25 24 23 23 23 23 21 17 17 19 20 19 18 18 17 14 12 10 9 9 9 9 9 9 10 11 10 10 13 12 13 15 16 16 16 15 15 16 17 15 11 7 8
18 18 19 19 20 20 20 20 20 20 20 20 20 20 20 20 20 20 19 19 20 20 21 21 21 22 23 22 23 22 21 23 25 24 24 24 22 20 21 25 24 22 23 23 20 18 19 20 20 19 18 17 18 19 18 16 14 14 14 14 12 11 9 8 9 8 8 11 13 12 14 14 15 16 17 16 16 16 17 16 15 14 12 8 8
18 18 19 19 19 19 20 20 20 20 20 21 21 21 21 20 20 20 19 19 20 21 21 21 20 21 22 22 24 24 23 23 23 21 22 22 20 20 21 22 20 18 20 21 18 16 17 19 19 19 19 18 18 17 15 14 15 16 16 14 10 9 9 7 8 8 8 12 14 14 16 16 15 15 15 15 15 17 19 16 11 11 11 7 6
18 18 18 19 19 19 19 19 20 20 21 21 22 22 21 21 20 20 19 19 19 20 20 20 19 20 21 22 25 26 25 25 23 17 16 15 13 14 16 15 9 8 11 12 12 13 15 17 17 17 19 20 19 18 15 14 16 16 15 13 11 11 11 11 11 11 11 13 15 15 15 14 13 13 14 15 16 17 17 15 11 11 10 7 7
18 18 17 18 18 19 19 20 20 20 20 21 21 21 21 21 21 20 19 19 19 18 19 20 20 20 20 21 26 29 28 27 26 19 11 7 3 3 8 9 9 12 14 12 10 10 11 13 14 15 18 19 19 20 18 15 15 15 14 13 13 13 14 14 15 15 14 14 13 11 11 12 12 13 13 14 16 16 15 15 13 11 8 7 8
17 16 16 17 18 19 19 19 19 19 20 20 20 19 19 20 21 20 19 19 19 19 19 19 19 20 20 21 24 28 30 29 28 23 15 9 7 8 12 16 16 16 16 14 11 10 10 12 13 14 18 19 19 19 18 14 13 14 12 12 14 15 16 17 17 17 17 16 15 14 14 15 16 15 14 14 15 15 14 14 13 12 10 5 6
16 16 16 16 17 18 19 19 19 19 19 19 19 19 19 19 20 20 19 19 20 21 20 20 20 20 21 21 21 24 29 32 31 27 21 16 11 11 15 17 16 16 17 15 14 13 13 14 15 17 20 20 19 18 16 14 13 13 11 13 16 19 19 19 19 19 18 18 16 15 15 15 14 14 14 14 14 13 13 13 12 12 14 13 10
16 17 17 17 17 18 19 20 19 18 19 19 19 19 19 19 19 19 20 20 20 22 22 22 21 20 21 22 21 21 26 33 35 31 26 22 18 18 20 20 15 14 16 16 16 16 16 16 16 17 19 19 18 16 15 14 14 13 14 17 20 20 18 18 18 17 17 17 17 16 15 14 13 13 12 12 12 10 9 10 9 10 12 13 14
15 16 17 18 19 18 19 20 20 18 19 19 19 20 20 20 19 19 19 19 19 21 22 22 21 21 23 26 26 24 25 30 34 35 33 29 26 23 21 19 14 12 15 17 17 16 17 17 15 14 15 17 17 16 16 16 17 18 19 21 21 20 18 17 17 18 19 19 19 18 16 15 15 13 12 13 13 12 10 9 9 9 11 13 14
15 15 16 17 18 18 18 20 21 20 20 19 19 20 21 21 20 20 20 19 19 19 20 20 20 21 23 27 29 29 28 28 32 35 35 34 32 29 25 22 18 16 19 21 20 18 18 18 16 15 15 15 16 18 18 19 21 22 21 21 20 19 19 19 19 20 20 20 19 17 15 15 15 14 11 12 14 14 14 13 13 12 11 13 14
14 15 15 16 17 18 18 19 20 21 22 21 20 21 22 22 22 21 20 20 19 20 20 20 19 19 21 23 26 30 33 33 33 34 33 32 32 32 31 30 27 25 26 26 23 22 21 19 18 18 18 18 19 21 22 23 23 23 22 21 19 16 16 16 16 17 18 16 15 16 15 13 14 14 13 13 14 14 14 15 15 14 13 13 13
14 14 15 15 16 17 18 17 18 20 22 23 22 21 21 22 22 22 22 21 20 20 20 20 19 18 19 20 22 27 33 37 37 35 34 34 33 32 31 30 29 28 27 26 24 24 23 22 22 22 22 22 23 24 24 22 21 21 20 19 18 16 15 15 15 16 16 14 13 14 13 12 13 13 12 12 11 11 12 13 13 13 13 13 13
14 13 14 15 15 16 16 16 16 17 18 21 22 21 21 22 22 23 22 22 22 21 21 20 20 19 18 18 19 23 30 35 36 35 34 33 33 33 31 29 27 25 25 24 23 24 24 24 25 25 25 25 25 25 24 23 22 21 20 20 20 19 19 19 18 17 15 13 13 13 12 12 13 12 11 10 10 9 9 10 10 10 10 10 11
14 14 15 15 14 15 15 15 16 16 15 16 19 20 20 21 21 21 20 20 21 21 21 19 19 19 19 19 18 20 26 31 32 31 30 29 29 29 29 29 27 25 23 22 22 22 23 23 24 24 25 25 26 25 25 25 25 24 23 22 22 21 20 19 18 16 13 12 12 12 12 12 12 11 11 10 10 8 7 7 8 8 8 8 9
14 14 14 14 14 14 14 14 15 15 13 12 15 19 21 21 19 17 18 20 20 19 19 19 18 18 20 21 19 19 22 25 25 25 26 26 25 24 24 23 23 23 22 21 22 23 24 24 24 24 24 25 26 26 25 25 25 24 23 23 22 21 20 19 17 15 13 12 12 12 12 12 12 11 11 11 10 9 8 8 7 6 6 6 7
13 13 14 14 13 13 14 13 14 15 13 10 11 14 18 21 21 18 17 19 20 20 20 20 19 17 17 19 18 17 18 19 20 22 24 25 24 23 21 18 17 17 16 16 21 25 27 26 26 25 25 26 25 25 24 24 24 23 23 23 22 21 21 20 18 16 16 15 14 13 12 13 12 11 11 10 10 10 10 9 7 6 5 6 6
14 14 14 14 14 13 14 14 13 14 14 12 10 9 10 15 18 19 18 19 20 20 20 19 19 19 18 16 16 15 14 16 18 20 22 23 23 22 21 19 17 15 12 12 18 23 24 24 24 24 24 25 23 22 22 23 22 21 22 23 22 21 21 19 18 17 17 17 16 16 16 16 15 13 12 11 10 10 10 9 8 7 6 6 6
15 14 14 14 15 15 15 15 14 13 13 14 14 12 9 9 11 13 14 17 19 20 20 19 19 20 19 18 17 16 15 15 16 18 19 20 20 20 19 19 18 15 12 14 18 20 19 19 19 19 20 21 21 20 20 20 20 19 20 21 20 20 20 19 17 17 18 18 18 18 17 17 16 15 13 12 12 10 9 9 9 9 9 8 7
14 14 14 14 15 16 16 16 17 16 15 14 14 14 13 12 10 7 7 9 13 16 18 18 19 20 21 20 18 17 16 15 15 16 17 17 17 17 17 18 17 15 14 16 18 17 16 16 16 16 16 17 18 18 19 19 18 18 18 18 18 18 18 18 18 18 18 18 17 17 16 15 15 15 14 13 12 10 9 9 8 8 8 8 6
11 12 13 13 14 15 16 17 17 16 16 15 15 14 13 13 13 11 8 6 7 10 12 15 16 18 20 22 19 17 15 14 13 13 15 15 14 14 15 15 15 15 16 16 15 15 15 15 15 15 16 16 16 16 17 17 17 17 16 16 16 16 16 17 17 17 17 17 17 16 14 13 13 13 13 12 11 10 9 8 7 7 6 6 5
10 11 12 12 13 14 15 15 16 16 17 17 17 16 14 12 12 12 12 11 10 11 11 11 12 13 16 20 20 17 15 14 13 12 12 12 11 13 13 12 12 14 14 13 13 13 13 14 13 14 15 16 16 16 15 15 15 15 15 15 15 16 16 16 16 16 16 16 16 15 14 14 13 13 13 12 11 9 8 7 6 6 6 6 5
11 12 12 12 12 13 13 13 15 16 16 16 16 17 16 15 13 12 12 12 13 14 13 11 10 10 11 16 19 17 13 14 13 12 12 11 11 12 13 11 10 11 11 10 10 10 10 11 11 12 13 14 15 15 14 14 14 13 13 13 13 13 14 14 14 14 14 15 14 14 13 13 12 12 12 12 11 10 9 8 7 6 6 5 5
11 12 12 11 11 12 12 12 13 14 14 15 16 17 17 17 16 14 13 13 13 14 14 12 11 11 11 14 19 17 11 11 13 11 11 12 11 11 11 10 9 9 9 9 9 9 9 9 10 10 11 12 13 13 13 12 12 12 12 12 13 13 14 14 13 13 14 14 14 13 12 12 11 10 10 10 10 9 8 8 7 7 5 2 2
8 8 10 10 11 10 11 12 12 13 14 14 16 16 16 16 17 15 14 14 13 13 14 13 13 13 14 16 18 16 11 11 14 11 10 10 10 10 9 9 9 8 8 8 8 8 8 9 9 9 9 10 10 11 11 11 11 12 13 14 14 14 13 13 12 11 11 11 11 10 10 10 10 9 9 9 9 7 6 6 6 6 4 3 4
5 4 8 11 11 9 10 12 11 12 13 14 14 15 15 15 16 16 15 15 14 14 14 13 11 13 15 16 17 16 13 13 13 12 11 10 9 9 8 8 8 7 7 7 7 7 7 8 8 8 8 8 9 9 10 10 10 10 10 10 10 9 9 9 9 9 9 9 9 9 9 9 9 9 9 9 8 7 7 6 6 5 5 5 6
7 5 7 10 10 8 9 11 11 11 12 12 13 14 14 14 15 15 15 15 14 14 14 12 11 12 14 15 16 16 14 13 13 11 10 10 9 8 8 8 7 7 6 6 6 6 7 7 7 7 7 7 8 8 9 8 8 7 7 7 8 8 8 9 9 9 9 9 9 8 8 8 8 8 8 8 7 7 6 6 6 5 5 4 4
9 9 8 8 10 10 10 10 10 10 11 12 13 13 13 14 14 14 14 14 14 13 12 12 10 10 12 15 16 14 13 14 13 11 10 9 9 8 8 7 7 6 6 6 6 6 6 6 6 6 6 6 6 7 7 7 7 7 7 7 8 8 8 8 8 8 8 8 8 8 8 8 8 8 7 6 5 5 5 5 5 4 4 4 3
9 9 8 8 9 10 9 10 10 10 10 11 12 13 12 12 13 13 12 12 13 13 12 11 10 9 11 14 14 12 12 12 12 11 10 9 7 7 7 7 7 6 6 6 5 5 5 6 6 5 6 6 6 6 6 6 6 6 6 6 6 7 7 7 7 7 7 7 8 8 8 7 7 6 5 5 5 6 5 5 4 3 4 4 2
8 8 8 8 8 8 8 9 10 10 10 10 11 12 12 12 12 12 12 11 12 13 12 12 11 10 10 12 12 12 12 12 11 10 10 9 7 6 6 6 6 6 6 5 5 5 5 5 5 5 5 5 5 5 4 4 4 5 5 5 5 5 5 6 6 6 6 7 6 5 5 4 5 6 5 5 6 6 6 5 4 3 4 5 4
7 8 8 8 8 9 8 9 9 9 9 9 9 10 11 12 12 12 12 12 13 14 13 11 10 10 10 11 11 12 13 12 10 9 9 8 7 6 5 5 5 5 5 5 5 5 5 5 5 5 4 4 4 3 3 3 3 3 4 4 4 4 4 4 4 4 5 6 5 3 2 3 5 6 5 4 5 6 6 5 4 4 5 6 6
6 7 8 8 8 9 8 9 9 9 9 9 9 10 11 12 12 13 13 12 13 13 12 10 10 9 10 9 9 11 11 11 10 9 8 7 7 6 5 4 4 4 4 4 4 4 3 4 4 4 3 3 3 2 2 3 2 2 2 3 3 3 3 3 3 3 3 2 2 2 1 2 2 4 4 2 2 5 7 6 4 4 5 6 6
6 7 8 7 8 9 8 8 8 9 9 9 10 10 10 11 12 13 13 13 13 13 11 9 8 9 8 8 7 8 9 10 9 9 8 6 6 6 5 4 3 3 3 3 3 3 3 3 3 3 3 3 3 2 2 2 2 1 1 1 2 3 3 2 2 2 0 2 5 5 2 1 1 2 2 3 5 4 4 4 4 3 2 3 6
6 7 8 7 8 9 9 8 8 10 10 10 10 12 12 12 11 12 12 13 13 12 10 8 8 8 8 8 7 7 7 8 9 8 6 5 5 5 4 3 2 2 2 1 2 2 2 2 2 2 2 2 2 1 1 2 2 1 1 2 2 2 3 3 2 1 1 2 4 6 6 5 3 4 3 4 5 2 2 1 2 4 2 2 4
7 7 7 7 8 9 9 8 8 10 10 10 10 11 12 12 12 12 12 12 13 12 9 8 8 8 7 7 7 6 6 7 7 7 6 5 5 4 2 2 2 1 1 0 0 0 0 1 1 1 1 1 1 1 1 1 1 1 2 3 4 4 4 5 4 2 1 1 2 4 7 8 7 5 4 4 5 4 3 3 0 3 3 2 3
7 7 8 8 8 9 8 8 9 10 10 10 10 10 10 11 12 12 11 11 11 11 10 9 9 8 7 7 7 7 6 5 5 5 5 5 5 3 1 1 1 1 1 1 1 1 1 1 1 1 1 1 1 1 1 0 1 2 3 5 6 5 6 6 6 4 3 2 2 3 3 4 5 4 2 2 3 4 4 4 3 2 2 2 2
7 7 8 8 8 9 8 8 9 10 9 10 11 11 10 10 12 12 12 11 11 11 10 10 9 9 7 7 7 7 6 6 5 5 4 4 4 4 2 1 2 2 2 2 2 2 2 2 2 2 1 1 1 1 1 1 2 3 5 6 4 5 6 7 6 5 5 4 1 2 2 2 2 2 1 1 1 2 3 3 3 4 5 3 1
7 8 8 8 8 9 9 9 10 10 9 10 11 11 10 11 12 12 12 11 11 11 10 10 10 10 8 7 7 8 7 6 6 5 4 3 3 4 3 1 2 3 3 2 2 2 2 2 2 2 2 2 1 1 2 2 4 5 5 4 4 5 6 5 5 5 5 5 2 1 2 1 1 2 3 3 2 2 3 4 4 5 7 6 2
Wind_Direction
359 355 351 346 344 342 340 338 334 331 328 323 317 311 306 307 306 299 291 286 279 273 270 265 259 256 256 259 259 256 247 231 222 222 226 229 230 230 228 223 221 221 219 213 210 209 209 211 213 215 218 219 220 216 211 211 212 215 223 227 227 221 208 202 200 198 200 181 177 183 184 181 183 186 179 170 177 187 185 188 196 194 192 197 200
358 355 352 347 345 343 341 340 337 334 332 327 322 318 314 310 307 302 295 290 285 276 269 262 256 253 252 249 248 253 255 245 229 224 226 227 228 229 229 227 225 223 219 215 215 215 212 212 213 217 218 214 214 213 208 208 211 213 221 227 227 223 213 191 165 190 206 183 184 185 181 185 187 183 181 171 170 183 186 185 190 190 188 191 200
360 356 354 350 346 345 343 342 340 337 335 332 328 324 321 315 309 306 300 293 289 282 272 264 261 259 256 252 248 250 253 249 237 229 228 228 227 228 228 227 225 221 218 216 216 214 212 213 214 217 220 215 213 213 206 205 210 212 218 233 233 223 213 189 167 187 201 180 190 192 181 186 189 185 188 179 169 182 190 188 186 188 190 189 195
1 357 355 352 349 348 346 343 342 340 337 334 331 327 324 319 313 308 305 300 292 284 277 269 267 266 262 261 259 255 253 250 241 233 231 230 231 232 229 226 225 222 218 214 214 213 212 214 215 216 220 218 212 209 206 205 210 210 214 236 243 225 207 198 185 184 185 182 203 202 181 183 191 190 192 185 178 185 192 192 188 188 191 191 196
360 358 355 354 352 351 349 346 344 342 339 336 333 331 327 323 318 311 308 306 299 290 281 272 271 272 268 264 259 253 250 248 243 237 236 235 233 233 233 231 229 227 221 216 216 216 212 211 212 214 218 216 209 206 205 206 210 211 212 226 237 226 207 204 195 187 186 189 202 198 181 184 194 193 190 187 184 187 191 193 191 188 189 192 197
358 358 357 355 354 352 350 349 347 344 342 338 335 333 331 329 327 322 318 312 304 297 290 280 274 271 267 262 259 255 250 246 245 242 239 237 234 231 232 231 229 228 226 222 219 218 216 215 213 213 215 214 207 202 202 204 208 212 215 224 230 222 210 211 200 185 187 193 198 197 189 189 196 195 191 188 187 190 191 189 189 189 188 188 190
356 358 358 355 354 353 351 350 349 347 345 342 338 336 335 333 333 331 330 326 317 309 302 293 285 277 270 264 262 262 260 253 247 244 239 238 236 233 230 231 231 230 229 224 219 218 218 218 217 216 216 214 207 201 202 206 207 211 217 230 237 223 207 208 191 163 178 191 196 202 198 189 190 194 192 189 189 191 190 187 186 187 186 187 186
355 357 358 356 354 353 353 352 351 351 350 348 345 341 338 338 337 335 335 334 331 326 319 311 303 294 285 277 272 273 274 268 253 247 247 244 242 240 235 233 234 231 227 225 223 221 219 218 220 220 215 208 201 199 206 209 209 213 215 225 247 244 214 200 184 158 173 189 191 197 198 186 184 194 196 192 191 191 190 188 186 184 183 187 191
355 356 357 358 356 354 355 354 353 355 355 354 353 350 346 343 341 340 339 338 336 333 330 324 317 310 302 292 284 280 281 279 263 255 255 252 247 247 243 237 235 234 231 229 226 224 221 221 223 221 210 200 197 198 206 210 210 214 214 212 234 257 253 221 212 180 176 190 191 190 195 189 185 194 199 192 189 191 186 186 189 187 185 187 195
357 358 359 359 357 356 356 355 355 357 357 357 357 355 353 350 346 344 343 341 340 337 335 333 329 325 320 311 302 294 288 281 269 263 261 256 250 253 256 246 236 236 235 230 226 224 222 222 222 216 205 200 202 203 208 211 208 210 215 216 222 233 232 234 244 230 203 201 192 184 195 200 190 191 196 188 187 191 185 185 189 187 186 189 193
359 0 0 358 358 358 357 357 357 358 358 358 358 357 355 354 351 349 347 345 343 341 339 338 337 333 328 324 320 316 308 291 275 271 269 264 257 253 255 245 229 230 230 226 227 224 219 218 214 205 200 199 202 206 209 208 206 207 212 214 218 221 213 209 228 239 234 226 205 197 203 208 198 193 193 187 185 189 189 189 191 192 193 192 193
3 1 2 1 359 359 358 358 360 1 0 360 359 358 357 356 354 352 351 349 345 344 343 342 340 338 334 330 327 324 321 311 294 281 273 271 266 256 251 242 225 222 223 223 226 221 214 212 205 194 196 199 199 203 204 203 203 204 205 207 211 216 211 199 203 218 219 210 208 211 213 216 211 201 191 186 186 191 193 190 192 204 204 202 209
6 3 5 4 1 0 359 360 1 2 2 1 0 360 359 358 357 354 352 350 348 347 346 345 344 343 340 337 333 326 319 311 303 294 283 277 271 261 256 248 232 223 222 220 219 214 209 204 196 187 192 199 200 200 200 198 199 199 198 200 205 208 202 191 191 202 203 191 198 210 216 212 212 218 211 196 188 188 189 182 185 199 201 208 225
5 6 8 6 4 2 2 2 2 3 3 2 2 2 1 359 358 357 354 352 351 350 349 349 349 348 346 341 336 333 324 313 305 297 289 285 279 268 257 247 235 225 219 214 211 211 206 198 191 186 188 195 196 194 193 191 192 193 192 194 204 214 210 200 190 189 190 186 191 208 213 196 189 211 217 192 175 174 173 169 173 178 163 145 160
7 8 7 7 6 5 4 3 3 3 4 4 4 3 2 360 358 358 357 356 355 353 351 352 353 352 353 349 342 337 330 322 314 301 289 285 283 274 255 240 232 225 218 213 212 212 204 195 192 187 181 186 189 187 184 182 181 180 175 172 182 190 194 203 202 187 184 192 191 196 200 181 164 178 184 171 171 181 179 173 175 177 164 129 112
10 9 8 7 6 6 7 6 6 6 6 6 6 4 2 0 358 357 358 358 358 356 355 356 357 356 357 356 351 345 338 334 328 314 299 288 280 272 252 235 229 222 212 208 208 208 200 194 193 186 176 176 183 185 183 178 170 160 153 153 165 180 185 195 201 189 181 192 194 192 196 190 174 170 174 175 182 185 176 169 170 172 165 147 135
12 10 10 9 8 8 9 8 8 8 8 8 8 7 5 2 360 358 359 360 359 358 358 358 359 359 360 0 357 349 346 348 343 328 315 303 286 271 254 242 236 221 207 205 204 197 192 191 188 179 172 172 177 179 176 169 161 153 146 141 146 170 181 180 180 175 166 175 183 185 185 184 179 176 178 178 177 174 167 159 160 165 156 146 156
15 13 11 10 10 10 9 9 8 7 8 8 7 7 7 5 3 1 1 2 0 359 360 360 1 2 2 4 3 357 353 357 360 349 328 314 295 265 245 235 223 179 171 183 183 172 173 180 179 171 169 173 174 171 166 161 158 150 141 135 135 142 150 152 152 154 155 159 168 173 173 175 179 181 181 176 174 174 167 158 161 168 161 150 144
16 15 13 12 11 10 8 8 7 6 6 6 5 5 6 5 5 4 4 5 3 1 2 2 3 4 4 6 9 8 5 5 10 12 355 334 331 197 183 156 116 98 97 102 119 129 138 153 162 165 168 171 170 168 165 162 157 147 138 142 146 138 136 140 140 137 137 138 141 143 145 152 158 161 165 167 167 167 162 155 151 149 156 173 164
18 16 14 13 13 13 10 8 6 6 6 6 6 7 6 5 6 6 7 7 5 5 6 5 4 4 5 9 13 15 15 15 18 23 22 23 53 101 118 110 99 93 91 90 95 100 102 115 131 146 155 156 157 160 161 156 150 148 147 147 144 137 137 139 136 131 127 122 118 116 122 131 136 136 138 140 141 143 145 144 139 127 119 132 164
20 18 16 15 14 15 13 10 8 8 8 8 9 10 9 8 8 8 8 8 8 9 9 8 9 9 8 10 14 17 22 26 28 31 36 43 54 77 90 91 91 94 93 85 81 86 93 100 112 128 141 145 148 150 151 149 148 151 153 146 140 139 139 137 132 128 123 117 113 109 112 117 117 118 122 122 117 120 124 125 126 121 108 96 105
20 19 19 19 19 17 16 14 12 9 8 8 10 11 10 8 9 9 8 8 9 11 12 12 14 15 15 15 16 15 22 31 35 36 41 49 56 66 74 77 82 91 92 83 75 79 89 95 103 120 133 139 142 142 142 144 144 141 139 139 135 129 125 123 121 115 111 112 112 105 101 100 94 93 98 99 97 101 110 114 115 116 112 102 103
20 20 20 21 21 20 19 20 18 15 12 11 12 13 12 10 11 11 9 9 8 9 12 14 16 18 20 20 21 20 21 30 37 39 40 43 47 52 60 64 68 79 87 85 79 78 84 90 96 111 123 126 128 127 127 127 126 125 128 130 127 120 114 112 112 109 107 107 106 100 96 96 93 87 84 84 85 84 86 96 102 109 115 108 101
22 21 21 22 22 21 22 23 24 22 20 19 18 17 16 14 14 14 12 12 12 10 10 11 14 18 20 21 24 26 27 30 37 43 45 46 48 52 58 64 72 82 85 85 84 84 84 86 92 101 108 110 113 113 112 112 114 118 121 120 118 116 112 108 106 105 102 98 96 94 92 93 95 96 95 94 94 94 91 91 94 100 110 112 108
25 23 22 23 23 22 23 25 27 27 25 24 22 21 21 19 17 16 16 15 16 15 11 10 11 14 19 22 23 27 32 35 38 42 46 49 51 55 61 67 73 78 80 81 83 86 87 89 93 98 100 103 106 106 104 106 111 114 113 111 109 108 108 109 108 104 100 95 92 90 89 91 96 99 99 97 97 99 99 97 96 97 100 100 101
27 26 25 24 23 24 25 25 27 29 28 28 27 25 25 24 21 19 19 18 19 19 15 13 12 12 17 23 23 24 30 34 36 38 41 47 50 52 56 62 66 71 75 78 81 84 87 90 93 95 97 98 100 99 98 102 107 109 107 106 104 102 102 101 98 94 94 93 91 90 92 96 98 96 93 94 96 98 101 100 100 100 99 97 95
26 26 26 25 23 24 27 26 27 30 30 31 32 30 29 29 27 25 23 21 22 23 22 20 19 16 17 22 23 25 29 32 33 33 35 39 45 48 50 54 60 66 71 74 76 79 83 87 89 92 95 94 93 93 92 91 91 91 92 92 92 92 94 92 88 85 88 92 95 99 102 103 100 96 93 94 95 96 101 105 107 110 111 109 106
27 27 27 26 22 21 25 26 27 32 37 40 39 37 34 33 32 32 31 28 27 26 27 28 28 26 26 26 24 25 29 31 32 33 34 35 38 42 45 46 50 56 64 71 77 80 84 86 87 89 90 89 85 83 82 80 77 77 79 81 82 83 87 90 87 83 84 91 94 97 98 97 95 95 96 96 93 91 96 105 113 123 132 130 124
28 27 26 26 22 18 20 24 25 29 41 56 56 51 47 46 44 43 41 39 36 35 35 36 37 37 37 36 33 28 27 28 29 33 38 38 37 38 40 41 43 48 56 67 75 77 77 77 76 77 79 78 75 72 72 73 72 70 72 76 77 77 79 80 76 73 77 84 87 89 92 92 90 90 91 89 85 84 87 92 98 113 131 133 125
28 28 27 26 23 19 20 23 24 24 31 51 66 63 58 55 54 55 54 49 43 41 43 44 44 44 43 42 40 35 30 28 28 30 35 37 38 40 40 40 44 47 51 62 68 66 63 61 59 61 65 67 67 67 68 70 69 66 68 74 78 77 76 74 72 75 79 78 77 80 84 87 88 89 89 87 84 82 83 87 91 95 101 106 104
27 25 27 26 22 21 23 23 22 20 21 26 38 54 64 64 60 59 59 56 49 44 44 45 45 45 46 44 41 35 30 27 25 25 27 29 32 36 38 41 46 47 52 68 69 61 57 56 53 54 60 61 60 63 68 71 69 66 68 74 78 79 77 74 72 76 80 78 75 76 77 78 80 80 80 84 87 85 81 81 80 78 86 98 101
29 24 24 25 24 25 25 23 21 20 18 18 19 23 32 50 63 67 63 57 50 45 43 45 45 44 43 41 38 33 29 25 23 23 26 28 28 27 31 37 43 45 53 70 70 61 57 56 53 54 59 61 61 63 68 69 70 71 72 74 75 75 77 78 79 80 81 80 78 77 77 77 77 75 73 74 79 81 79 77 74 70 74 82 87
35 29 23 20 24 26 25 23 22 21 19 16 15 16 17 19 28 50 69 64 53 46 43 45 47 44 40 37 35 33 31 28 28 28 28 26 25 25 28 34 41 48 57 64 66 62 59 58 55 54 57 61 65 68 70 70 71 74 74 73 74 75 78 81 84 83 82 83 81 78 77 78 78 77 75 74 75 75 77 82 86 87 89 95 104
50 51 35 21 21 24 23 23 22 19 19 20 18 15 15 14 14 18 25 31 37 41 41 40 41 41 38 34 31 31 31 29 27 26 23 21 24 30 31 30 34 45 54 59 61 64 65 63 61 60 61 63 64 66 69 71 72 72 70 70 74 77 79 79 80 81 83 84 82 78 78 80 81 81 82 82 81 79 78 81 88 96 101 106 115
44 52 39 22 19 22 22 21 19 15 16 20 20 15 12 13 11 10 10 7 7 15 23 27 28 30 32 28 23 22 27 29 24 21 21 23 31 38 37 33 33 38 46 53 58 62 65 65 66 68 70 68 65 64 66 69 69 68 68 69 72 74 74 74 76 79 82 80 78 77 76 77 79 82 82 80 80 81 82 80 79 83 89 92 92
27 27 21 15 15 19 20 18 18 16 12 13 16 15 12 11 10 7 5 4 4 5 8 14 18 17 21 20 11 5 14 28 29 29 30 31 35 39 39 38 41 42 44 50 54 57 60 62 65 72 73 71 69 69 69 68 66 64 66 71 74 74 73 72 74 77 78 77 76 77 77 77 80 85 84 80 78 78 78 73 66 66 76 86 97
23 18 14 6 2 10 17 15 13 12 8 7 13 14 9 8 10 10 7 6 4 1 4 11 15 13 14 12 2 352 359 22 25 28 36 35 35 39 39 42 51 54 52 53 56 59 61 61 63 70 72 71 72 73 72 68 66 66 72 79 83 83 81 79 78 78 78 77 75 74 74 74 78 83 88 90 90 90 91 91 86 78 69 55 78
17 23 21 3 345 353 9 9 4 6 6 5 10 12 9 6 7 10 11 9 5 3 6 12 17 16 14 8 359 352 2 20 18 14 21 29 33 40 42 44 53 59 59 59 60 62 66 68 69 72 73 73 74 73 72 71 72 77 83 85 85 82 80 79 77 76 77 78 75 74 75 75 76 78 82 85 88 89 92 99 103 98 78 46 52
14 49 38 13 355 352 2 1 1 5 5 2 4 9 10 8 6 7 9 8 6 8 10 13 20 22 19 13 6 1 7 19 20 13 12 19 30 41 47 48 53 59 63 65 67 70 73 73 74 74 76 78 79 77 76 79 81 82 81 77 74 74 73 72 72 73 74 75 74 73 74 76 79 83 85 86 88 86 78 73 76 82 78 69 67
359 19 28 11 353 342 349 360 4 2 358 358 1 5 7 6 4 5 7 5 4 8 9 10 22 29 22 17 14 7 5 14 21 19 15 18 26 36 45 48 52 56 61 64 69 79 83 80 79 78 78 79 83 83 82 83 83 79 74 70 71 72 71 70 70 71 72 74 75 75 76 79 82 85 89 93 95 95 93 87 79 75 72 72 78
350 356 4 356 342 337 348 5 6 356 352 356 359 1 3 0 357 1 8 5 2 4 5 5 15 24 19 15 15 10 7 13 18 18 17 22 29 35 39 42 47 57 67 73 78 85 89 88 87 85 82 84 89 89 85 83 81 80 79 77 76 76 75 73 71 71 72 73 72 73 79 84 87 87 90 95 96 94 97 98 90 83 76 64 71
342 345 350 350 346 347 354 359 355 355 3 5 358 356 359 355 349 356 9 8 359 359 1 1 2 7 11 10 9 8 11 20 25 22 18 20 29 35 36 36 42 54 66 76 85 91 93 93 94 93 92 95 98 97 92 88 86 85 83 81 82 85 85 81 77 76 77 76 75 77 80 84 87 88 85 88 89 81 74 76 79 89 96 83 57
337 339 345 346 345 349 352 349 350 358 6 4 356 352 350 347 346 356 7 7 357 354 359 360 357 357 359 359 359 2 11 23 30 27 19 17 23 29 32 36 44 54 62 71 82 91 96 98 100 101 103 106 110 109 101 93 91 92 89 85 85 87 89 92 91 86 86 88 85 79 78 90 101 95 84 85 92 84 68 59 49 47 79 89 54
337 342 347 345 345 351 353 349 352 355 349 347 354 353 342 339 350 1 4 358 352 351 354 357 357 356 355 355 1 8 13 21 30 30 24 22 22 23 29 40 49 59 66 69 74 84 91 97 102 105 109 114 116 112 102 98 100 101 97 96 98 98 94 94 86 82 97 108 101 91 119 139 123 110 104 113 126 119 101 80 52 36 59 81 62
346 346 346 345 347 351 353 352 354 351 342 345 357 354 339 339 353 2 2 357 350 347 349 353 358 360 358 357 3 9 12 18 26 27 26 25 23 22 29 39 48 63 72 71 74 84 89 96 104 109 114 119 120 118 124 127 122 94 74 83 95 97 94 88 76 78 103 97 10 339 197 162 97 92 101 90 95 112 106 91 73 55 61 81 89
352 343 342 348 346 344 351 358 353 342 340 350 356 349 344 348 353 354 356 356 350 346 347 352 360 4 2 1 4 7 7 11 17 20 25 28 23 21 28 34 38 55 65 67 77 85 84 94 109 115 119 123 123 124 135 146 152 142 106 82 77 78 87 99 99 106 128 343 353 6 35 56 61 128 118 23 21 65 103 92 80 72 42 69 111
353 342 342 347 341 334 343 354 346 332 336 347 350 345 346 350 348 347 352 354 350 347 351 358 4 6 5 5 4 0 1 6 10 16 27 33 24 22 32 34 25 34 49 56 80 92 85 94 111 119 125 134 141 143 145 155 167 170 165 158 142 130 134 135 119 62 311 335 7 16 17 19 51 124 122 12 12 64 140 145 123 134 122 68 98
352 345 343 345 341 334 337 343 337 330 335 344 344 341 343 342 340 344 351 351 348 348 353 358 1 3 5 7 4 358 358 3 5 7 14 20 22 30 43 23 353 360 16 17 61 88 79 95 124 165 199 202 205 218 205 200 197 174 175 187 197 199 183 160 149 158 239 359 21 15 13 15 26 56 67 26 14 26 12 350 65 154 154 98 84
348 345 342 343 341 336 337 340 336 334 340 342 338 337 339 336 334 340 347 346 345 349 354 356 357 359 359 1 359 354 351 355 359 360 1 3 9 22 31 277 273 277 271 264 267 271 267 248 209 207 221 226 199 192 198 167 135 167 204 222 227 220 197 179 174 178 164 105 33 6 13 14 7 15 45 37 4 356 357 358 359 339 333 13 85
337 335 336 340 340 335 337 343 340 337 343 344 339 337 337 332 331 338 345 343 342 347 351 352 353 355 355 354 352 348 344 343 348 355 358 355 354 360 358 262 229 245 264 265 256 255 248 228 214 205 189 180 180 162 135 140 173 207 232 242 230 201 190 189 192 190 171 148 107 345 343 356 349 347 357 3 352 341 337 339 333 318 315 323 70
326 323 325 333 334 331 335 342 340 337 342 344 339 334 333 332 336 341 342 338 337 341 344 346 349 349 350 350 348 344 339 337 339 350 359 355 346 349 355 321 231 242 256 249 237 238 229 215 216 209 191 189 185 149 152 193 223 239 248 236 203 190 193 193 191 196 196 187 177 347 337 310 286 310 326 330 345 357 342 331 317 295 290 292 292